Regional Weather Roundup
Issued by NWS Cleveland, OH

Home | Current Version | Previous Version | Graphics & Text | Print | Product List | Glossary On
Versions: 1 2 3 4 5 6 7 8 9 10 11 12 13 14 15 16 17 18 19 20 21 22 23 24 25 26 27 28 29 30 31 32 33 34 35 36 37 38 39 40 41 42 43 44 45 46 47 48 49 50
197
ASUS41 KCLE 121602
RWRCLE
OHIO REGIONAL WEATHER ROUNDUP
NATIONAL WEATHER SERVICE CLEVELAND, OH
1100 AM EST FRI FEB 12 2016

NOTE: "FAIR" INDICATES FEW OR NO CLOUDS BELOW 12,000 FEET WITH NO
SIGNIFICANT WEATHER AND/OR OBSTRUCTIONS TO VISIBILITY.

OHZ001>008-015>018-024>027-034-035-043-044-121700-
   NORTHWEST OHIO

CITY           SKY/WX    TMP DP  RH WIND       PRES   REMARKS
DEFIANCE       CLOUDY    23  10  57 SW12G18   30.09F WCI  12
FINDLAY        CLOUDY    22  10  60 SW13      30.09F WCI  10
TOLEDO EXPRESS CLOUDY    21   9  59 SW15G25   30.06F WCI   8
TOLEDO EXEC      N/A    N/A N/A N/A MISG      30.07F
LIMA           CLOUDY    22  11  62 SW16      30.09F WCI   8
$$

OHZ009>014-019>023-028>033-038-089-121700-
   NORTHEAST OHIO

CITY           SKY/WX    TMP DP  RH WIND       PRES   REMARKS
CLE-HOPKINS    CLOUDY    19   7  59 SW13      30.10F WCI   6
CLE-LAKEFRONT  CLOUDY    21   9  59 SW14G24   30.08F WCI   8
CUY CO. ARPT   CLOUDY    21   9  58 SW16      30.07F WCI   7
LORAIN-ELYRIA  CLOUDY    19   8  62 SW14      30.08F WCI   6
ASHTABULA      CLOUDY    18   8  65 SW12      30.05F WCI   5
AKRON-CANTON   CLOUDY    18   7  62 SW14      30.06F WCI   4
WOOSTER        CLOUDY    18   8  65 SW12      30.08F WCI   5
MANSFIELD      CLOUDY    18   8  65 SW15      30.06F WCI   4
YOUNGSTOWN     CLOUDY    17   6  62 SW16      30.06F WCI   2
$$

OHZ042-051>053-060>062-070>072-077>081-121700-
  SOUTHWEST OHIO

CITY           SKY/WX    TMP DP  RH WIND       PRES   REMARKS
CINC-COVINGTON LGT SNOW  23  17  78 SW8       30.15F VSB 3/4 WCI  14
CINC-LUNKEN    CLOUDY    25  16  68 SW8       30.19F WCI  16
HAMILTON       CLOUDY    25  15  66 SW6       30.17F WCI  18
DAYTON         CLOUDY    22  11  62 SW9       30.12F WCI  12
WRIGHT-PAT AFB CLOUDY    23   9  55 SW9       30.13F WCI  13
DAYTON GENERAL CLOUDY    22  11  62 SW9       30.12F WCI  12
WILMINGTON     CLOUDY    21  13  71 SW12      30.11F WCI   9
$$

OHZ036-037-039>041-045>050-054>059-063>069-073>076-082>088-121700-
  CENTRAL AND SOUTHEAST OHIO

CITY           SKY/WX    TMP DP  RH WIND       PRES   REMARKS
COLUMBUS       CLOUDY    18   5  57 SW7       30.14F WCI   9
OSU AIRPORT    CLOUDY    22   9  57 SW12      30.12F WCI  10
BOLTON FIELD   CLOUDY    19   9  63 SW8       30.14F WCI   9
RICKENBACK AFB NOT AVBL
NEWARK         CLOUDY    19   7  59 SW9       30.13F WCI   8
MARION         CLOUDY    22   8  55 SW15      30.10F WCI   9
LANCASTER      CLOUDY    20   7  57 S6        30.13F WCI  12
ZANESVILLE     CLOUDY    19   8  62 S6        30.13F WCI  11
NEW PHILLY     MOSUNNY   18   7  62 S7        30.13F WCI   9
$$




USA.gov is the U.S. government's official web portal to all federal, state and local government web resources and services.